Flight Track Log - Related Links

Times and Time Zones

All times are in EDT time to prevent confusion due to time zone crossing. See the UCA3597 flight status page for this flight to view local times or setup timezone preferences in your user account.

Time Position Orientation Groundspeed Altitude Reporting Facility
EDT Latitude Longitude Course Direction KTS MPH feet Rate Location/Type
Sat 07:10:23 PM 38.9833 -77.5167 North 164 189 2,400  Level Potomac TRACON
Sat 07:11:23 PM 39.0167 -77.5500 322° Northwest 177 204 4,100 1,983 Climbing Potomac TRACON
Sat 07:12:24 PM 39.0500 -77.6000 311° West 175 201 6,400 1,866 Climbing Potomac TRACON
Sat 07:13:22 PM 39.1000 -77.6333 333° Northwest 186 214 7,800 1,462 Climbing Potomac TRACON
Sat 07:14:00 PM 39.4022 -77.2624 North  Level Estimated
Sat 07:14:23 PM 39.1333 -77.6667 322° Northwest 194 223 9,300  Level Potomac TRACON
Sat 07:15:00 PM 39.4682 -77.2336 North  Level Estimated
Sat 07:15:49 PM 39.2161 -77.6944 345° North 207 238 11,500  Level Washington Center
Sat 07:16:50 PM 39.2744 -77.6908 North 207 238 12,800 1,250 Climbing Washington Center
Sat 07:17:49 PM 39.3353 -77.6764 10° North 207 238 14,000 1,008 Climbing Washington Center
Sat 07:18:49 PM 39.3942 -77.6325 30° Northeast 220 253 14,800 800 Climbing Washington Center
Sat 07:19:49 PM 39.4575 -77.5886 28° Northeast 240 276 15,600 595 Climbing Washington Center
Sat 07:20:50 PM 39.5250 -77.5422 28° Northeast 251 289 16,000 235 Climbing Washington Center
Sat 07:22:48 PM 39.6739 -77.4525 25° Northeast 294 338 16,300 775 Climbing New York Center
Sat 07:23:48 PM 39.7344 -77.4528 360° North 264 304 18,300 1,350 Climbing New York Center
Sat 07:24:48 PM 39.8075 -77.4542 359° North 240 276 19,000 350 Climbing New York Center
Sat 07:25:48 PM 39.8742 -77.4525 North 248 285 19,000  Level New York Center
Sat 07:26:48 PM 39.9617 -77.4528 360° North 277 319 19,000  Level New York Center
Sat 07:27:48 PM 40.0392 -77.4494 North 293 337 19,000  Level New York Center
Sat 07:28:48 PM 40.1308 -77.4500 360° North 298 343 19,000  Level New York Center
Sat 07:29:48 PM 40.2061 -77.4464 North 298 343 19,000  Level New York Center
Sat 07:30:48 PM 40.3019 -77.4472 360° North 309 356 19,000  Level New York Center
Sat 07:31:48 PM 40.3772 -77.4436 North 309 356 19,000  Level New York Center
Sat 07:32:48 PM 40.4731 -77.4447 359° North 309 356 19,000  Level New York Center
Sat 07:33:48 PM 40.5442 -77.4053 23° Northeast 309 356 19,000 -200 Level New York Center
Sat 07:34:48 PM 40.6311 -77.3397 30° Northeast 316 364 18,600 -550 Descending New York Center
Sat 07:35:48 PM 40.7011 -77.2808 33° Northeast 321 369 17,900 -650 Descending New York Center
Sat 07:36:48 PM 40.7819 -77.2117 33° Northeast 332 382 17,300 -600 Descending New York Center
Sat 07:37:48 PM 40.8628 -77.1425 33° Northeast 337 388 16,700 -600 Descending New York Center
Sat 07:38:48 PM 40.9436 -77.0758 32° Northeast 337 388 16,100 -600 Descending New York Center
Sat 07:39:48 PM 41.0242 -77.0089 32° Northeast 337 388 15,500 -600 Descending New York Center
Sat 07:40:48 PM 41.1028 -76.9392 34° Northeast 337 388 14,900 -600 Descending New York Center
Sat 07:41:48 PM 41.1833 -76.8719 32° Northeast 337 388 14,300 -650 Descending New York Center
Sat 07:42:48 PM 41.2617 -76.8072 32° Northeast 337 388 13,600 -700 Descending New York Center
Sat 07:43:48 PM 41.3400 -76.7397 33° Northeast 337 388 12,900 -750 Descending New York Center
Sat 07:44:48 PM 41.4233 -76.6614 35° Northeast 337 388 12,100 -850 Descending New York Center
Sat 07:45:48 PM 41.5014 -76.5961 32° Northeast 337 388 11,200 -900 Descending New York Center
Sat 07:46:48 PM 41.5753 -76.5333 32° Northeast 325 374 10,300 -900 Descending New York Center
Sat 07:47:48 PM 41.6406 -76.4778 32° Northeast 320 368 9,400 -700 Descending New York Center
Sat 07:48:48 PM 41.7139 -76.4203 30° Northeast 314 361 8,900 -750 Descending New York Center
Sat 07:49:48 PM 41.7992 -76.3800 19° North 293 337 7,900 -950 Descending New York Center
Sat 07:50:48 PM 41.8719 -76.3417 21° North 282 325 7,000 -850 Descending New York Center
Sat 07:51:48 PM 41.9403 -76.3028 23° Northeast 270 311 6,200 -750 Descending New York Center
Sat 07:52:48 PM 41.9983 -76.2658 25° Northeast 259 298 5,500 -800 Descending New York Center
Sat 07:53:48 PM 42.0711 -76.2186 26° Northeast 259 298 4,600 -750 Descending New York Center
Sat 07:54:48 PM 42.1353 -76.1792 25° Northeast 253 291 4,000 -300 Descending New York Center
Sat 07:55:48 PM 42.2006 -76.1678 North 240 276 4,000  Level New York Center
Sat 07:56:48 PM 42.2656 -76.1564 North 235 270 4,000 -100 Level New York Center
Sat 07:57:48 PM 42.3236 -76.1161 27° Northeast 230 265 3,800 -350 Descending New York Center
Sat 07:58:48 PM 42.2931 -76.0519 123° Southeast 117 135 3,300 -650 Descending New York Center
Sat 07:59:48 PM 42.2508 -76.0178 149° Southeast 110 127 2,500 -800 Descending New York Center
Sat 08:01:00 PM 42.2084 -75.9796 North  Level Estimated
Sat 08:08:00 PM 42.2084 -75.9796 North  Level Estimated

Login

Don't have an account? Register now (free) for customized features, flight alerts, and more!